| time (UTC) | temp C | wind direction | speed KPH | gust KPH | rain 1hr cm | rain 24hr cm | rain mn cm | humidity % | barometer mb |
| 20260506103506 | -1 | 203 | 12.9 | 19.3 | 0.00 | 0.03 | 0.00 | 78 | 1019.9 |
| 20260506103006 | -1 | 204 | 11.3 | 16.1 | 0.00 | 0.03 | 0.00 | 78 | 1019.9 |
| 20260506102506 | -1 | 207 | 9.7 | 16.1 | 0.00 | 0.03 | 0.00 | 79 | 1019.9 |
| 20260506102006 | -1 | 207 | 9.7 | 16.1 | 0.00 | 0.03 | 0.00 | 80 | 1019.9 |
| 20260506101505 | -1 | 200 | 11.3 | 16.1 | 0.00 | 0.03 | 0.00 | 80 | 1019.9 |
| 20260506101006 | -1 | 217 | 8.0 | 11.3 | 0.00 | 0.03 | 0.00 | 80 | 1019.9 |
| 20260506100006 | -1 | 218 | 8.0 | 12.9 | 0.00 | 0.03 | 0.00 | 80 | 1019.9 |
| 20260506094506 | -1 | 200 | 9.7 | 14.5 | 0.00 | 0.03 | 0.00 | 79 | 1020.0 |
| 20260506094006 | -1 | 211 | 8.0 | 12.9 | 0.00 | 0.03 | 0.00 | 79 | 1020.0 |
| 20260506093506 | -1 | 206 | 8.0 | 12.9 | 0.00 | 0.03 | 0.00 | 80 | 1020.0 |
| 20260506093006 | -1 | 215 | 8.0 | 11.3 | 0.00 | 0.03 | 0.00 | 81 | 1020.1 |
| 20260506092505 | -1 | 212 | 8.0 | 11.3 | 0.00 | 0.03 | 0.00 | 81 | 1020.1 |
| 20260506092005 | 0 | 217 | 8.0 | 11.3 | 0.00 | 0.03 | 0.00 | 81 | 1020.1 |
| 20260506091505 | 0 | 239 | 8.0 | 11.3 | 0.00 | 0.03 | 0.00 | 81 | 1020.1 |
| 20260506085505 | -1 | 224 | 8.0 | 11.3 | 0.00 | 0.03 | 0.00 | 83 | 1020.1 |
| 20260506084505 | -1 | 214 | 4.8 | 11.3 | 0.00 | 0.03 | 0.00 | 83 | 1020.1 |
| 20260506084005 | -1 | 203 | 8.0 | 11.3 | 0.00 | 0.03 | 0.00 | 82 | 1020.1 |
| 20260506083505 | -1 | 207 | 6.4 | 11.3 | 0.00 | 0.03 | 0.00 | 82 | 1020.1 |
| 20260506083006 | -1 | 240 | 8.0 | 9.7 | 0.00 | 0.03 | 0.00 | 82 | 1020.1 |
| 20260506082505 | -1 | 233 | 8.0 | 12.9 | 0.00 | 0.03 | 0.00 | 81 | 1020.1 |
| 20260506082006 | 0 | 239 | 8.0 | 12.9 | 0.00 | 0.03 | 0.00 | 80 | 1020.1 |
| 20260506081506 | 0 | 249 | 11.3 | 14.5 | 0.00 | 0.03 | 0.00 | 81 | 1020.1 |
| 20260506081006 | 0 | 244 | 8.0 | 14.5 | 0.00 | 0.03 | 0.00 | 82 | 1020.1 |
| 20260506073505 | -1 | 236 | 8.0 | 8.0 | 0.00 | 0.03 | 0.00 | 83 | 1020.1 |
| 20260506073005 | 0 | 233 | 4.8 | 8.0 | 0.00 | 0.03 | 0.00 | 82 | 1020.2 |
| 20260506072506 | 0 | 237 | 8.0 | 8.0 | 0.00 | 0.03 | 0.00 | 82 | 1020.2 |
| 20260506072005 | 0 | 233 | 8.0 | 8.0 | 0.00 | 0.03 | 0.00 | 83 | 1020.2 |
| 20260506071505 | 0 | 237 | 4.8 | 4.8 | 0.00 | 0.03 | 0.00 | 84 | 1020.2 |
| 20260506071006 | 0 | 238 | 3.2 | 8.0 | 0.00 | 0.03 | 0.00 | 84 | 1020.2 |
| 20260506062505 | 0 | 250 | 3.2 | 8.0 | 0.00 | 0.03 | 0.00 | 82 | 1020.4 |
| 20260506062005 | 0 | 251 | 4.8 | 12.9 | 0.00 | 0.03 | 0.00 | 81 | 1020.4 |
| 20260506061505 | 0 | 247 | 8.0 | 12.9 | 0.00 | 0.03 | 0.00 | 80 | 1020.4 |
| 20260506061006 | 0 | 209 | 4.8 | 14.5 | 0.00 | 0.03 | 0.00 | 80 | 1020.2 |
| 20260506051006 | 0 | 224 | 8.0 | 12.9 | 0.00 | 0.03 | 0.03 | 82 | 1020.0 |
| 20260506044505 | 1 | 213 | 8.0 | 9.7 | 0.00 | 0.03 | 0.03 | 81 | 1020.1 |
| 20260506044005 | 1 | 203 | 4.8 | 9.7 | 0.00 | 0.03 | 0.03 | 81 | 1020.1 |
| 20260506043505 | 1 | 199 | 8.0 | 11.3 | 0.00 | 0.03 | 0.03 | 81 | 1020.1 |
| 20260506043005 | 1 | 199 | 8.0 | 11.3 | 0.00 | 0.03 | 0.03 | 81 | 1020.1 |
| 20260506042505 | 0 | 197 | 8.0 | 9.7 | 0.00 | 0.03 | 0.03 | 81 | 1020.1 |
| 20260506042005 | 0 | 195 | 8.0 | 9.7 | 0.00 | 0.03 | 0.03 | 79 | 1020.1 |
| 20260506041505 | 1 | 196 | 8.0 | 8.0 | 0.00 | 0.03 | 0.03 | 78 | 1020.0 |
| 20260506041006 | 1 | 217 | 4.8 | 8.0 | 0.00 | 0.03 | 0.03 | 77 | 1020.0 |
| 20260506040005 | 1 | 295 | 1.6 | 4.8 | 0.00 | 0.03 | 0.03 | 74 | 1020.0 |
| 20260506035505 | 1 | 279 | 3.2 | 4.8 | 0.00 | 0.03 | 0.03 | 75 | 1019.9 |
| 20260506035005 | 1 | 282 | 3.2 | 4.8 | 0.00 | 0.03 | 0.03 | 76 | 1019.9 |
| 20260506034506 | 1 | 274 | 4.8 | 4.8 | 0.00 | 0.03 | 0.03 | 76 | 1019.9 |
| 20260506034006 | 1 | 280 | 4.8 | 4.8 | 0.00 | 0.03 | 0.03 | 76 | 1019.9 |
| 20260506033505 | 1 | 281 | 3.2 | 4.8 | 0.00 | 0.03 | 0.03 | 76 | 1019.8 |
| 20260506031005 | 1 | 319 | 1.6 | 4.8 | 0.00 | 0.03 | 0.03 | 73 | 1019.5 |
| 20260506030005 | 2 | 326 | 0.0 | 3.2 | 0.00 | 0.03 | 0.03 | 71 | 1019.4 |
| 20260506025505 | 2 | 323 | 0.0 | 4.8 | 0.00 | 0.03 | 0.03 | 71 | 1019.4 |
| 20260506024505 | 2 | 331 | 3.2 | 9.7 | 0.00 | 0.03 | 0.03 | 71 | 1019.1 |
| 20260506023505 | 2 | 323 | 4.8 | 9.7 | 0.00 | 0.03 | 0.03 | 68 | 1019.0 |
| 20260506022505 | 3 | 343 | 8.0 | 9.7 | 0.00 | 0.03 | 0.03 | 64 | 1018.8 |
| 20260506022006 | 3 | 5 | 4.8 | 9.7 | 0.00 | 0.03 | 0.03 | 60 | 1018.7 |
| 20260506021505 | 3 | 8 | 4.8 | 14.5 | 0.00 | 0.03 | 0.03 | 60 | 1018.7 |
| 20260506021005 | 3 | 11 | 8.0 | 19.3 | 0.00 | 0.03 | 0.03 | 60 | 1018.6 |
| 20260506020005 | 3 | 351 | 11.3 | 19.3 | 0.00 | 0.03 | 0.03 | 59 | 1018.5 |
| 20260506015505 | 3 | 2 | 11.3 | 20.9 | 0.00 | 0.03 | 0.03 | 58 | 1018.4 |
| 20260506014505 | 3 | 358 | 12.9 | 27.4 | 0.00 | 0.03 | 0.03 | 58 | 1018.2 |
| 20260506014005 | 3 | 355 | 16.1 | 29.0 | 0.00 | 0.03 | 0.03 | 58 | 1018.1 |
| 20260506013005 | 4 | 359 | 17.7 | 24.1 | 0.00 | 0.03 | 0.03 | 57 | 1018.1 |
| 20260506012505 | 5 | 5 | 9.7 | 20.9 | 0.00 | 0.03 | 0.03 | 55 | 1018.1 |
| 20260506012005 | 5 | 357 | 11.3 | 19.3 | 0.00 | 0.03 | 0.03 | 56 | 1018.0 |
| 20260506011505 | 5 | 13 | 4.8 | 19.3 | 0.00 | 0.03 | 0.03 | 59 | 1017.9 |
| 20260506011005 | 5 | 2 | 8.0 | 19.3 | 0.00 | 0.03 | 0.03 | 58 | 1017.8 |
| 20260506010005 | 5 | 20 | 9.7 | 16.1 | 0.00 | 0.03 | 0.03 | 59 | 1017.7 |
| 20260506005505 | 5 | 9 | 9.7 | 16.1 | 0.00 | 0.03 | 0.03 | 60 | 1017.8 |
| 20260506005005 | 5 | 2 | 8.0 | 14.5 | 0.00 | 0.03 | 0.03 | 62 | 1017.7 |
| 20260506004506 | 5 | 358 | 4.8 | 14.5 | 0.00 | 0.03 | 0.03 | 63 | 1017.7 |
| 20260506004006 | 5 | 290 | 6.4 | 14.5 | 0.00 | 0.03 | 0.03 | 65 | 1017.7 |
| 20260506003505 | 4 | 329 | 3.2 | 14.5 | 0.00 | 0.03 | 0.03 | 66 | 1017.6 |
| 20260506002505 | 3 | 336 | 8.0 | 19.3 | 0.00 | 0.03 | 0.03 | 68 | 1017.6 |
| 20260506001505 | 3 | 332 | 8.0 | 16.1 | 0.00 | 0.03 | 0.03 | 70 | 1017.6 |
| 20260506001005 | 3 | 328 | 9.7 | 16.1 | 0.00 | 0.03 | 0.03 | 71 | 1017.5 |
| 20260506000005 | 3 | 320 | 9.7 | 29.0 | 0.00 | 0.03 | 0.03 | 74 | 1017.6 |
| 20260505235505 | 2 | 336 | 14.5 | 29.0 | 0.00 | 0.03 | 0.03 | 74 | 1017.7 |
| 20260505234505 | 2 | 331 | 17.7 | 24.1 | 0.00 | 0.03 | 0.03 | 75 | 1017.5 |
| 20260505234005 | 2 | 338 | 16.1 | 25.7 | 0.00 | 0.03 | 0.03 | 76 | 1017.5 |
| 20260505233005 | 2 | 335 | 19.3 | 35.4 | 0.00 | 0.03 | 0.03 | 79 | 1017.3 |
| 20260505232505 | 2 | 347 | 19.3 | 37.0 | 0.00 | 0.03 | 0.03 | 79 | 1017.2 |
| 20260505232005 | 2 | 346 | 29.0 | 38.6 | 0.00 | 0.03 | 0.03 | 78 | 1017.2 |
| 20260505231505 | 2 | 352 | 25.7 | 38.6 | 0.00 | 0.03 | 0.03 | 74 | 1017.0 |
| 20260505231005 | 5 | 347 | 22.5 | 32.2 | 0.00 | 0.03 | 0.03 | 65 | 1017.0 |
| 20260505230005 | 6 | 195 | 8.0 | 11.3 | 0.00 | 0.03 | 0.03 | 61 | 1016.1 |
| 20260505225005 | 6 | 189 | 6.4 | 19.3 | 0.00 | 0.03 | 0.03 | 59 | 1016.1 |
| 20260505224505 | 6 | 192 | 9.7 | 19.3 | 0.00 | 0.03 | 0.03 | 61 | 1016.1 |
| 20260505224005 | 6 | 161 | 6.4 | 14.5 | 0.00 | 0.03 | 0.03 | 63 | 1016.1 |
| 20260505223505 | 6 | 192 | 9.7 | 16.1 | 0.00 | 0.03 | 0.03 | 64 | 1016.2 |
| 20260505222505 | 6 | 185 | 9.7 | 19.3 | 0.00 | 0.03 | 0.03 | 65 | 1016.1 |
| 20260505222006 | 6 | 166 | 11.3 | 19.3 | 0.00 | 0.03 | 0.03 | 64 | 1016.1 |
| 20260505221505 | 6 | 202 | 9.7 | 16.1 | 0.00 | 0.03 | 0.03 | 67 | 1016.1 |
| 20260505221005 | 6 | 165 | 11.3 | 16.1 | 0.00 | 0.03 | 0.03 | 68 | 1016.1 |
| 20260505220005 | 5 | 189 | 8.0 | 16.1 | 0.00 | 0.03 | 0.03 | 72 | 1016.2 |
| 20260505215505 | 5 | 197 | 9.7 | 16.1 | 0.00 | 0.03 | 0.03 | 74 | 1016.3 |
| 20260505214005 | 4 | 197 | 9.7 | 19.3 | 0.00 | 0.03 | 0.03 | 77 | 1016.2 |
| 20260505213005 | 3 | 243 | 12.9 | 19.3 | 0.00 | 0.03 | 0.03 | 82 | 1016.2 |
| 20260505212505 | 3 | 234 | 11.3 | 19.3 | 0.00 | 0.03 | 0.03 | 85 | 1016.2 |
| 20260505211505 | 3 | 234 | 9.7 | 19.3 | 0.00 | 0.03 | 0.03 | 86 | 1016.2 |
| 20260505211005 | 2 | 203 | 8.0 | 19.3 | 0.00 | 0.03 | 0.03 | 86 | 1016.4 |
| 20260505210004 | 2 | 216 | 8.0 | 32.2 | 0.00 | 0.03 | 0.03 | 85 | 1016.5 |
| 20260505205505 | 2 | 233 | 11.3 | 32.2 | 0.00 | 0.03 | 0.03 | 82 | 1016.6 |
| 20260505205005 | 2 | 247 | 12.9 | 22.5 | 0.00 | 0.03 | 0.03 | 84 | 1016.4 |
| 20260505204505 | 2 | 224 | 9.7 | 14.5 | 0.00 | 0.03 | 0.03 | 84 | 1016.3 |
| 20260505204005 | 2 | 244 | 9.7 | 16.1 | 0.00 | 0.03 | 0.03 | 84 | 1016.3 |
| 20260505203505 | 2 | 241 | 9.7 | 16.1 | 0.00 | 0.03 | 0.03 | 84 | 1016.2 |
| 20260505203005 | 2 | 220 | 9.7 | 16.1 | 0.03 | 0.03 | 0.03 | 84 | 1016.2 |
| 20260505202505 | 3 | 238 | 9.7 | 14.5 | 0.03 | 0.03 | 0.03 | 84 | 1016.3 |
| 20260505202006 | 3 | 206 | 8.0 | 12.9 | 0.03 | 0.03 | 0.03 | 84 | 1016.4 |
| 20260505201005 | 2 | 273 | 8.0 | 11.3 | 0.03 | 0.03 | 0.03 | 82 | 1016.4 |
| 20260505200005 | 2 | 316 | 3.2 | 12.9 | 0.03 | 0.03 | 0.03 | 87 | 1016.5 |
| 20260505195505 | 2 | 320 | 4.8 | 8.0 | 0.03 | 0.03 | 0.03 | 88 | 1016.5 |
| 20260505194505 | 2 | 291 | 4.8 | 14.5 | 0.03 | 0.03 | 0.03 | 88 | 1016.5 |
| 20260505194006 | 2 | 344 | 11.3 | 16.1 | 0.03 | 0.03 | 0.03 | 87 | 1016.6 |
| 20260505193506 | 2 | 333 | 9.7 | 16.1 | 0.03 | 0.03 | 0.03 | 88 | 1016.7 |
| 20260505192505 | 2 | 4 | 8.0 | 19.3 | 0.00 | 0.00 | 0.00 | 86 | 1016.8 |
| 20260505192005 | 2 | 2 | 11.3 | 19.3 | 0.00 | 0.00 | 0.00 | 85 | 1016.9 |
| 20260505191505 | 2 | 22 | 9.7 | 16.1 | 0.00 | 0.00 | 0.00 | 85 | 1016.8 |
| 20260505191005 | 2 | 27 | 9.7 | 16.1 | 0.00 | 0.00 | 0.00 | 84 | 1016.8 |
| 20260505185505 | 3 | 350 | 16.1 | 33.8 | 0.00 | 0.00 | 0.00 | 74 | 1016.6 |
| 20260505185005 | 3 | 10 | 16.1 | 35.4 | 0.00 | 0.00 | 0.00 | 70 | 1016.4 |
| 20260505184505 | 5 | 352 | 22.5 | 35.4 | 0.00 | 0.00 | 0.00 | 59 | 1016.2 |
| 20260505184005 | 5 | 329 | 14.5 | 24.1 | 0.00 | 0.00 | 0.00 | 56 | 1015.9 |
| 20260505183505 | 5 | 335 | 14.5 | 20.9 | 0.00 | 0.00 | 0.00 | 57 | 1015.8 |
| 20260505183006 | 5 | 332 | 8.0 | 19.3 | 0.00 | 0.00 | 0.00 | 56 | 1015.8 |
| 20260505182504 | 5 | 328 | 9.7 | 22.5 | 0.00 | 0.00 | 0.00 | 55 | 1015.8 |
| 20260505182005 | 6 | 349 | 11.3 | 22.5 | 0.00 | 0.00 | 0.00 | 54 | 1015.8 |
| 20260505181505 | 6 | 302 | 11.3 | 32.2 | 0.00 | 0.00 | 0.00 | 54 | 1015.8 |
| 20260505180005 | 7 | 330 | 8.0 | 19.3 | 0.00 | 0.00 | 0.00 | 45 | 1015.6 |
| 20260505175505 | 7 | 164 | 3.2 | 12.9 | 0.00 | 0.00 | 0.00 | 46 | 1015.6 |
| 20260505175005 | 7 | 297 | 8.0 | 12.9 | 0.00 | 0.00 | 0.00 | 47 | 1015.8 |
| 20260505174505 | 6 | 240 | 6.4 | 19.3 | 0.00 | 0.00 | 0.00 | 46 | 1015.7 |
| 20260505174005 | 6 | 153 | 3.2 | 19.3 | 0.00 | 0.00 | 0.00 | 50 | 1015.8 |
| 20260505173505 | 6 | 254 | 8.0 | 19.3 | 0.00 | 0.00 | 0.00 | 50 | 1015.8 |
| 20260505173005 | 6 | 260 | 8.0 | 20.9 | 0.00 | 0.00 | 0.00 | 50 | 1015.9 |
| 20260505172005 | 5 | 338 | 4.8 | 16.1 | 0.00 | 0.00 | 0.00 | 50 | 1016.1 |
| 20260505171505 | 5 | 287 | 6.4 | 12.9 | 0.00 | 0.00 | 0.00 | 51 | 1016.2 |
| 20260505171006 | 5 | 304 | 4.8 | 11.3 | 0.00 | 0.00 | 0.00 | 52 | 1016.2 |
| 20260505170005 | 4 | 336 | 1.6 | 16.1 | 0.00 | 0.00 | 0.00 | 51 | 1016.3 |
| 20260505164504 | 5 | 271 | 3.2 | 11.3 | 0.00 | 0.00 | 0.00 | 52 | 1016.3 |
| 20260505163505 | 4 | 313 | 1.6 | 8.0 | 0.00 | 0.00 | 0.00 | 51 | 1016.4 |
| 20260505163006 | 4 | 320 | 4.8 | 8.0 | 0.00 | 0.00 | 0.00 | 52 | 1016.4 |
| 20260505162006 | 4 | 319 | 1.6 | 8.0 | 0.00 | 0.00 | 0.00 | 52 | 1016.4 |
| 20260505161505 | 4 | 327 | 3.2 | 12.9 | 0.00 | 0.00 | 0.00 | 52 | 1016.4 |
| 20260505161005 | 4 | 322 | 6.4 | 12.9 | 0.00 | 0.00 | 0.00 | 52 | 1016.3 |
| 20260505153005 | 4 | 26 | 3.2 | 14.5 | 0.00 | 0.00 | 0.00 | 54 | 1016.2 |
| 20260505152505 | 4 | 30 | 4.8 | 12.9 | 0.00 | 0.00 | 0.00 | 55 | 1016.2 |
| 20260505151005 | 3 | 20 | 4.8 | 12.9 | 0.00 | 0.00 | 0.00 | 53 | 1016.2 |
| 20260505124005 | 0 | 42 | 3.2 | 4.8 | 0.00 | 0.00 | 0.00 | 77 | 1015.4 |
| 20260505123005 | 0 | 41 | 3.2 | 4.8 | 0.00 | 0.00 | 0.00 | 77 | 1015.2 |
| 20260505122505 | 0 | 41 | 3.2 | 4.8 | 0.00 | 0.00 | 0.00 | 77 | 1015.3 |
| 20260505120005 | 0 | 40 | 3.2 | 4.8 | 0.00 | 0.00 | 0.00 | 74 | 1015.2 |
| 20260505115005 | -1 | 37 | 3.2 | 8.0 | 0.00 | 0.00 | 0.00 | 74 | 1015.3 |
| 20260505114505 | -1 | 37 | 4.8 | 8.0 | 0.00 | 0.00 | 0.00 | 74 | 1015.4 |
| 20260505114005 | 0 | 36 | 4.8 | 8.0 | 0.00 | 0.00 | 0.00 | 72 | 1015.4 |
| 20260505113505 | 0 | 36 | 4.8 | 8.0 | 0.00 | 0.00 | 0.00 | 70 | 1015.4 |
| 20260505113005 | 0 | 38 | 4.8 | 8.0 | 0.00 | 0.00 | 0.00 | 70 | 1015.2 |
| 20260505112504 | 0 | 54 | 4.8 | 9.7 | 0.00 | 0.00 | 0.00 | 70 | 1015.2 |
| 20260505112004 | 0 | 55 | 4.8 | 9.7 | 0.00 | 0.00 | 0.00 | 70 | 1015.2 |
| 20260505111505 | 0 | 57 | 8.0 | 9.7 | 0.00 | 0.00 | 0.00 | 70 | 1015.1 |
| 20260505111005 | 0 | 61 | 4.8 | 8.0 | 0.00 | 0.00 | 0.00 | 70 | 1015.1 |